• In Uzbekistan
  • List of Countries
  • For 7 days
  • Water Temperature
  • Satellite Maps
  • Weather Map
  • Weather Widgets
  • user-avatar
    Login

    Hourly Weather Dikhil

    Today, 15 October, Monday

    Time Temperature Precipitation Wind Pressure Humidity
    00:00 +34°C° 0 mm 3 mps 715 mmHg 30%
    01:00 +34°C° 0 mm 2 mps 715 mmHg 31%
    02:00 +32°C° 0 mm 2 mps 715 mmHg 33%
    03:00 +32°C° 0 mm 1 mps 715 mmHg 34%
    04:00 +32°C° 0 mm 1 mps 715 mmHg 35%
    05:00 +31°C° 0 mm 1 mps 716 mmHg 36%
    06:00 +31°C° 0 mm 1 mps 716 mmHg 37%
    07:00 +32°C° 0 mm 1 mps 716 mmHg 34%
    08:00 +34°C° 0 mm 2 mps 717 mmHg 32%
    09:00 +35°C° 0 mm 2 mps 717 mmHg 29%
    10:00 +36°C° 0 mm 2 mps 717 mmHg 27%
    11:00 +37°C° 0 mm 3 mps 717 mmHg 25%
    12:00 +38°C° 0 mm 3 mps 717 mmHg 22%
    13:00 +38°C° 0 mm 3 mps 716 mmHg 22%
    14:00 +40°C° 0 mm 4 mps 716 mmHg 22%
    15:00 +40°C° 0 mm 4 mps 715 mmHg 21%
    16:00 +40°C° 0 mm 4 mps 715 mmHg 23%
    17:00 +39°C° 0 mm 5 mps 715 mmHg 25%
    18:00 +37°C° 0 mm 5 mps 715 mmHg 26%
    19:00 +37°C° 0 mm 5 mps 715 mmHg 28%
    20:00 +36°C° 0 mm 5 mps 716 mmHg 30%
    21:00 +35°C° 0 mm 5 mps 716 mmHg 32%
    22:00 +34°C° 0 mm 5 mps 716 mmHg 33%
    23:00 +34°C° 0 mm 4 mps 716 mmHg 34%

    Tomorrow, 16 October, Tuesday

    Time Temperature Precipitation Wind Pressure Humidity
    00:00 +33°C° 0 mm 4 mps 716 mmHg 35%
    01:00 +33°C° 0 mm 4 mps 716 mmHg 39%
    02:00 +32°C° 0 mm 4 mps 716 mmHg 42%
    03:00 +30°C° 0 mm 4 mps 715 mmHg 46%
    04:00 +30°C° 0 mm 3 mps 716 mmHg 49%
    05:00 +29°C° 0 mm 3 mps 716 mmHg 52%
    06:00 +29°C° 0 mm 2 mps 716 mmHg 56%
    07:00 +30°C° 0 mm 3 mps 717 mmHg 51%
    08:00 +31°C° 0 mm 3 mps 717 mmHg 47%
    09:00 +33°C° 0 mm 3 mps 718 mmHg 42%
    10:00 +34°C° 0 mm 3 mps 718 mmHg 38%
    11:00 +36°C° 0 mm 4 mps 717 mmHg 35%
    12:00 +37°C° 0 mm 4 mps 717 mmHg 31%
    13:00 +37°C° 0 mm 4 mps 716 mmHg 31%
    14:00 +39°C° 0 mm 5 mps 716 mmHg 31%
    15:00 +39°C° 0 mm 5 mps 715 mmHg 30%
    16:00 +38°C° 0 mm 6 mps 715 mmHg 35%
    17:00 +36°C° 0 mm 6 mps 715 mmHg 39%
    18:00 +35°C° 0 mm 6 mps 715 mmHg 44%
    19:00 +34°C° 0 mm 6 mps 715 mmHg 47%
    20:00 +33°C° 0 mm 6 mps 716 mmHg 51%
    21:00 +32°C° 0 mm 5 mps 716 mmHg 54%
    22:00 +32°C° 0 mm 5 mps 716 mmHg 56%
    23:00 +32°C° 0 mm 5 mps 716 mmHg 58%

    Day after tomorrow, 17 October, Wednesday

    Time Temperature Precipitation Wind Pressure Humidity
    00:00 +30°C° 0 mm 5 mps 716 mmHg 59%
    01:00 +30°C° 0 mm 4 mps 716 mmHg 60%
    02:00 +29°C° 0 mm 4 mps 715 mmHg 61%
    03:00 +29°C° 0 mm 4 mps 715 mmHg 63%
    04:00 +29°C° 0 mm 4 mps 715 mmHg 63%
    05:00 +29°C° 0 mm 4 mps 716 mmHg 63%
    06:00 +28°C° 0 mm 4 mps 716 mmHg 64%
    07:00 +29°C° 0 mm 5 mps 716 mmHg 60%
    08:00 +30°C° 0 mm 5 mps 717 mmHg 57%
    09:00 +32°C° 0 mm 6 mps 718 mmHg 54%
    10:00 +33°C° 0 mm 6 mps 717 mmHg 50%
    11:00 +34°C° 0 mm 6 mps 717 mmHg 46%
    12:00 +35°C° 0 mm 6 mps 717 mmHg 42%
    13:00 +36°C° 0 mm 6 mps 716 mmHg 41%
    14:00 +36°C° 0 mm 6 mps 715 mmHg 39%
    15:00 +38°C° 0 mm 6 mps 714 mmHg 37%
    16:00 +35°C° 0 mm 7 mps 714 mmHg 43%
    17:00 +34°C° 0 mm 7 mps 714 mmHg 48%
    18:00 +33°C° 0 mm 7 mps 714 mmHg 53%
    19:00 +32°C° 0 mm 7 mps 715 mmHg 56%
    20:00 +32°C° 0 mm 7 mps 716 mmHg 59%
    21:00 +30°C° 0 mm 7 mps 716 mmHg 62%
    22:00 +30°C° 0 mm 7 mps 716 mmHg 62%
    23:00 +29°C° 0 mm 7 mps 716 mmHg 63%

    18 October, Thursday

    Time Temperature Precipitation Wind Pressure Humidity
    00:00 +29°C° 0 mm 7 mps 716 mmHg 63%
    01:00 +29°C° 0 mm 6 mps 716 mmHg 64%
    02:00 +29°C° 0 mm 6 mps 715 mmHg 65%
    03:00 +28°C° 0 mm 6 mps 715 mmHg 65%
    04:00 +28°C° 0.1 mm 5 mps 715 mmHg 66%
    05:00 +28°C° 0.1 mm 5 mps 716 mmHg 67%
    06:00 +28°C° 0.1 mm 5 mps 716 mmHg 68%
    07:00 +29°C° 0.3 mm 5 mps 717 mmHg 62%
    08:00 +30°C° 0.3 mm 5 mps 717 mmHg 57%
    09:00 +32°C° 0.3 mm 5 mps 718 mmHg 51%
    10:00 +33°C° 1 mm 5 mps 717 mmHg 48%
    11:00 +34°C° 1 mm 5 mps 717 mmHg 45%
    12:00 +35°C° 1 mm 5 mps 717 mmHg 42%
    13:00 +35°C° 1.2 mm 5 mps 716 mmHg 43%
    14:00 +34°C° 1.2 mm 6 mps 715 mmHg 44%
    15:00 +34°C° 1.2 mm 6 mps 715 mmHg 45%
    16:00 +33°C° 0 mm 6 mps 715 mmHg 49%
    17:00 +33°C° 0 mm 6 mps 715 mmHg 52%
    18:00 +32°C° 0 mm 7 mps 715 mmHg 56%
    19:00 +30°C° 0 mm 6 mps 716 mmHg 59%
    20:00 +30°C° 0 mm 6 mps 716 mmHg 62%
    21:00 +29°C° 0 mm 6 mps 717 mmHg 65%
    22:00 +29°C° 0.5 mm 5 mps 717 mmHg 65%
    23:00 +29°C° 0.5 mm 5 mps 716 mmHg 65%

    19 October, Friday

    Time Temperature Precipitation Wind Pressure Humidity
    00:00 +29°C° 0.5 mm 5 mps 716 mmHg 65%
    01:00 +29°C° 0.2 mm 5 mps 716 mmHg 66%
    02:00 +28°C° 0.2 mm 4 mps 716 mmHg 66%
    03:00 +28°C° 0.2 mm 4 mps 715 mmHg 66%
    04:00 +28°C° 0.1 mm 4 mps 716 mmHg 66%
    05:00 +28°C° 0.1 mm 4 mps 716 mmHg 66%
    06:00 +28°C° 0.1 mm 4 mps 717 mmHg 66%
    07:00 +29°C° 0 mm 4 mps 717 mmHg 63%
    08:00 +29°C° 0 mm 4 mps 718 mmHg 59%
    09:00 +30°C° 0 mm 4 mps 718 mmHg 56%
    10:00 +32°C° 0 mm 4 mps 718 mmHg 51%
    11:00 +33°C° 0 mm 4 mps 717 mmHg 46%
    12:00 +35°C° 0 mm 4 mps 717 mmHg 42%
    13:00 +35°C° 0 mm 5 mps 716 mmHg 41%
    14:00 +35°C° 0 mm 5 mps 716 mmHg 40%
    15:00 +36°C° 0 mm 5 mps 715 mmHg 39%
    16:00 +35°C° 0 mm 6 mps 715 mmHg 44%
    17:00 +34°C° 0 mm 6 mps 715 mmHg 48%
    18:00 +33°C° 0 mm 6 mps 716 mmHg 52%
    19:00 +32°C° 0 mm 6 mps 716 mmHg 55%
    20:00 +30°C° 0 mm 6 mps 716 mmHg 59%
    21:00 +30°C° 0 mm 6 mps 717 mmHg 62%
    22:00 +29°C° 0 mm 6 mps 717 mmHg 64%
    23:00 +29°C° 0 mm 5 mps 716 mmHg 66%

    20 October, Saturday

    Time Temperature Precipitation Wind Pressure Humidity
    00:00 +29°C° 0 mm 5 mps 716 mmHg 67%
    01:00 +28°C° 0 mm 5 mps 716 mmHg 68%
    02:00 +28°C° 0 mm 5 mps 716 mmHg 70%
    03:00 +28°C° 0 mm 5 mps 716 mmHg 71%
    04:00 +27°C° 0 mm 4 mps 716 mmHg 72%
    05:00 +27°C° 0 mm 4 mps 717 mmHg 73%
    06:00 +27°C° 0 mm 4 mps 717 mmHg 74%
    07:00 +28°C° 0 mm 4 mps 718 mmHg 67%
    08:00 +30°C° 0 mm 4 mps 718 mmHg 60%
    09:00 +32°C° 0 mm 5 mps 719 mmHg 53%
    10:00 +33°C° 0 mm 5 mps 718 mmHg 48%
    11:00 +34°C° 0 mm 4 mps 718 mmHg 44%
    12:00 +35°C° 0 mm 4 mps 717 mmHg 39%
    13:00 +36°C° 0 mm 5 mps 717 mmHg 38%
    14:00 +36°C° 0 mm 5 mps 716 mmHg 38%
    15:00 +36°C° 0 mm 5 mps 715 mmHg 37%
    16:00 +35°C° 0 mm 6 mps 716 mmHg 43%
    17:00 +34°C° 0 mm 6 mps 716 mmHg 48%
    18:00 +33°C° 0 mm 7 mps 716 mmHg 53%
    19:00 +32°C° 0.1 mm 7 mps 716 mmHg 57%
    20:00 +30°C° 0.1 mm 6 mps 716 mmHg 61%
    21:00 +30°C° 0.1 mm 6 mps 717 mmHg 65%
    22:00 +29°C° 0 mm 6 mps 717 mmHg 67%
    23:00 +29°C° 0 mm 6 mps 717 mmHg 68%
    Show more